Date,TemperatureHighF,TemperatureAvgF,TemperatureLowF,DewpointHighF,DewpointAvgF,DewpointLowF,HumidityHigh,HumidityAvg,HumidityLow,PressureMaxIn,PressureMinIn,WindSpeedMaxMPH,WindSpeedAvgMPH,GustSpeedMaxMPH,PrecipitationSumIn
2013-4-1,71.4,66.7,62.1,66.5,63.9,59.7,99,91,81,30.06,29.95,7,2,11,0.00
2013-4-2,73.2,66.5,61.6,65.9,63.3,59.6,98,90,75,30.11,30.00,6,2,7,0.04
2013-4-3,70.8,65.2,60.2,65.7,62.6,57.4,100,92,81,30.16,30.05,6,2,9,0.18
2013-4-4,74.9,67.9,59.6,69.3,65.3,59.3,100,92,76,30.15,30.04,7,3,12,0.00
2013-4-5,77.3,71.1,64.6,71.3,67.8,63.1,98,90,75,30.19,30.06,10,3,15,0.00
2013-4-6,78.6,72.6,67.0,72.6,68.3,63.5,98,87,74,30.23,30.12,10,3,13,0.00
2013-4-7,78.8,70.6,64.1,70.5,67.3,62.9,98,90,69,30.24,30.12,10,3,16,0.00
2013-4-8,77.1,69.9,63.6,70.3,66.1,62.0,100,88,68,30.15,30.03,11,4,16,0.07
2013-4-9,77.2,71.4,65.9,70.9,67.5,64.2,98,88,76,30.15,30.03,9,3,14,0.01
2013-4-10,78.4,71.2,64.0,71.8,66.8,60.7,97,86,70,30.14,30.02,10,3,13,0.00
2013-4-11,78.3,71.9,67.9,72.3,68.1,64.5,95,88,73,30.13,30.00,11,4,15,0.00
2013-4-12,75.9,69.6,64.4,70.2,66.2,61.8,97,89,76,30.06,29.98,8,3,11,0.00
2013-4-13,76.8,70.1,62.1,70.8,67.6,61.2,100,92,77,30.05,29.93,7,2,12,0.02
2013-4-14,75.7,70.1,65.2,71.4,68.7,64.3,100,95,85,30.05,29.94,5,1,7,0.00
2013-4-15,79.0,70.5,63.1,72.3,68.1,61.6,100,92,77,30.12,29.99,7,2,13,0.24
2013-4-16,76.7,70.7,65.3,72.0,69.3,64.7,100,95,84,30.16,30.05,6,2,10,0.01
2013-4-17,74.4,68.8,62.8,71.4,66.5,61.9,99,93,84,30.19,30.10,10,4,16,0.00
2013-4-18,78.9,70.8,62.6,72.5,66.8,60.7,97,88,73,30.18,30.10,12,4,20,0.00
2013-4-19,76.1,68.4,62.9,70.8,66.3,60.5,100,93,73,30.16,30.09,9,3,12,0.17
2013-4-20,78.5,70.4,62.4,71.2,67.2,61.8,100,91,68,30.16,30.07,7,3,11,0.02
2013-4-21,74.1,69.1,65.4,71.2,68.3,65.4,100,98,88,30.13,30.01,4,1,7,0.14
2013-4-22,78.3,71.3,64.9,72.2,68.9,64.9,100,92,75,30.12,30.02,6,2,12,0.00
2013-4-23,76.7,69.8,65.0,72.2,68.2,63.8,100,95,82,30.13,30.05,6,2,10,0.20
2013-4-24,75.2,69.7,64.4,71.2,68.6,64.3,100,97,84,30.15,30.05,6,1,12,0.43
2013-4-25,78.0,69.7,61.4,71.4,66.8,60.4,100,91,73,30.12,30.03,10,3,14,0.00
2013-4-26,76.7,70.3,62.8,70.7,66.2,59.4,97,87,77,30.11,30.02,11,3,18,0.00
2013-4-27,76.0,70.2,64.4,70.9,66.7,63.0,97,89,75,30.14,30.03,10,2,14,0.00
2013-4-28,76.3,69.8,62.9,72.6,67.9,62.1,100,94,79,30.12,30.00,8,3,13,0.09
2013-4-29,74.8,69.6,64.8,71.5,68.6,64.8,100,97,86,30.09,29.98,7,2,10,0.63
2013-4-30,73.7,68.4,63.5,72.0,68.1,63.0,100,99,92,30.10,30.00,8,2,14,0.22